Back to catalog

FENGYUN 1C DEB

AlivePO
NORAD 31540·DEBRIS·🇨🇳 China

Launched May 10, 1999 from Taiyuan Satellite Launch Center

Loading…

Next Passes (next 24 hours)

TLE

FreshSource: Space-Track

Epoch: Sep 11, 2026, 18:57 UTC

1 31540U 99025BYF 26254.78995559  .00004039  00000-0  57231-3 0  9991
2 31540  99.0690  88.1524 0169595 180.2227 179.8927 14.68290143 22907

Track FENGYUN 1C DEB in real time with AllMySat

Download on the App Store